Date,TemperatureHighF,TemperatureAvgF,TemperatureLowF,DewpointHighF,DewpointAvgF,DewpointLowF,HumidityHigh,HumidityAvg,HumidityLow,PressureMaxIn,PressureMinIn,WindSpeedMaxMPH,WindSpeedAvgMPH,GustSpeedMaxMPH,PrecipitationSumIn
2014-1-1,22,20,18,19,17,14,98,87,80,30.39,30.20,12,5,0,0.00
2014-1-2,18,16,10,15,13,8,91,88,83,30.20,29.90,21,9,0,0.00
2014-1-3,14,10,6,8,4,1,89,77,66,30.44,30.10,12,4,0,0.00
2014-1-4,36,27,14,17,10,4,69,49,37,30.30,30.02,20,8,0,0.04
2014-1-5,46,36,34,43,26,17,96,67,47,30.10,29.31,11,2,0,0.19
2014-1-6,48,16,-7,45,12,-15,97,83,68,30.07,29.21,23,12,0,0.30
2014-1-7,5,-1,-8,-1,-10,-16,76,66,56,30.40,30.07,22,9,0,0.00
2014-1-8,22,14,5,17,6,-2,84,70,55,30.50,30.40,13,4,0,0.00
2014-1-9,32,23,15,28,17,11,92,78,60,30.64,30.36,10,2,0,0.00
2014-1-10,45,38,32,41,36,28,92,89,85,30.34,29.72,18,5,0,0.38
2014-1-11,54,46,34,50,43,32,95,89,83,29.74,29.23,30,9,0,0.20
2014-1-12,39,35,33,32,30,29,93,83,74,29.97,29.59,23,8,0,0.10
2014-1-13,52,46,40,45,36,30,92,68,49,29.88,29.62,15,7,0,0.07
2014-1-14,46,37,32,44,32,25,94,82,66,29.78,29.62,16,5,0,0.03
2014-1-15,40,30,25,32,23,17,92,74,55,30.01,29.72,23,7,0,0.10
2014-1-16,33,29,26,25,20,15,89,69,54,29.97,29.76,14,5,0,0.01
2014-1-17,40,33,25,31,26,21,91,76,60,29.87,29.72,14,5,0,0.07
2014-1-18,24,18,14,20,12,6,88,76,68,29.96,29.86,16,5,0,0.07
2014-1-19,33,26,18,26,19,11,86,76,62,29.85,29.56,20,7,0,0.00
2014-1-20,35,26,17,30,20,10,93,77,68,30.02,29.52,23,6,0,0.00
2014-1-21,17,11,6,10,4,-2,82,73,63,30.16,30.00,13,5,0,0.00
2014-1-22,11,7,2,7,1,-3,84,75,67,30.14,30.04,8,3,0,0.00
2014-1-23,14,11,8,10,6,-1,86,80,64,30.45,30.03,15,4,0,0.00
2014-1-24,18,11,4,6,2,-1,83,67,51,30.45,29.71,22,8,0,0.00
2014-1-25,26,20,12,23,14,4,91,79,52,29.71,29.27,22,10,0,0.00
2014-1-26,32,16,6,25,9,-2,80,74,69,29.80,29.45,19,8,0,0.00
2014-1-27,37,15,4,29,9,-100,93,79,62,30.25,29.31,31,2,0,0.00
2014-1-28,10,4,-2,-2,-5,-9,79,66,57,30.41,30.25,16,7,0,0.00
2014-1-29,16,9,1,7,-1,-9,72,64,54,30.29,30.16,18,8,0,0.00
2014-1-30,34,23,14,12,4,2,62,45,27,30.29,29.82,16,7,0,0.00
2014-1-31,35,33,32,28,20,11,86,61,40,30.16,29.92,15,6,0,0.00
2014-2-1,44,38,32,42,33,27,93,84,68,30.16,29.80,15,4,0,0.55
2014-2-2,37,29,23,36,26,18,100,92,78,30.25,29.88,13,5,0,0.02
2014-2-3,24,22,21,20,17,15,88,82,77,30.40,30.20,9,2,0,0.02
2014-2-4,25,20,14,21,16,11,93,84,72,30.48,30.15,9,3,0,0.00
2014-2-5,24,22,16,23,21,13,95,93,87,30.29,29.72,19,7,0,0.00
2014-2-6,21,16,10,17,12,7,92,85,78,30.39,30.26,22,5,0,0.00
2014-2-7,15,10,4,8,2,-1,88,73,59,30.37,30.32,14,6,0,0.00
2014-2-8,18,13,7,11,6,-2,83,75,63,30.37,30.22,10,3,0,0.00
2014-2-9,24,17,13,20,14,10,91,86,82,30.22,29.96,11,3,0,0.00
2014-2-10,18,15,12,15,12,10,91,87,76,30.36,30.16,14,4,0,0.00
2014-2-11,17,13,7,12,9,4,90,83,74,30.53,30.36,7,2,0,0.00
2014-2-12,27,14,6,11,6,2,86,71,49,30.51,30.14,10,3,0,0.00
2014-2-13,24,20,14,19,13,7,89,75,59,30.14,29.57,10,3,0,0.00
2014-2-14,27,25,17,25,21,14,92,85,66,29.76,29.45,20,6,0,0.00
2014-2-15,24,19,12,21,15,8,91,85,82,30.09,29.75,15,6,0,0.00
2014-2-16,20,15,10,16,11,5,89,84,78,30.37,30.02,7,2,0,0.00
2014-2-17,33,16,3,24,8,-1,92,72,38,30.47,29.65,15,3,0,0.00
2014-2-18,42,30,23,30,25,21,94,82,56,30.03,29.66,26,9,0,0.00
2014-2-19,49,40,33,35,31,27,100,70,50,30.08,29.60,23,7,0,0.04
2014-2-20,56,40,32,47,34,25,96,80,45,30.09,29.53,15,5,0,0.33
2014-2-21,57,43,36,50,33,17,94,70,42,29.81,29.44,22,9,0,0.54
2014-2-22,42,40,37,32,22,13,76,51,33,29.97,29.77,32,11,0,0.19
2014-2-23,38,33,26,31,25,16,81,73,64,30.02,29.95,20,7,0,0.00
2014-2-24,25,23,20,17,15,12,85,70,63,30.06,29.99,23,11,0,0.00
2014-4-30,56,51,52,53,44,-100,94,86,84,29.81,29.71,18,-40,0,0.02
2014-5-1,58,52,48,55,44,37,90,73,56,29.81,29.71,20,7,0,0.01
2014-5-2,53,50,47,45,43,41,83,77,70,29.81,29.71,19,7,0,0.00
2014-5-3,61,52,46,49,44,41,89,74,54,29.80,29.61,22,6,0,0.05
2014-5-4,53,47,45,42,39,34,85,76,52,30.04,29.78,16,6,0,0.08
2014-5-5,50,46,40,41,39,36,87,78,68,30.06,29.94,8,1,0,0.09
2014-5-6,57,49,41,43,38,34,90,67,43,30.08,29.95,10,2,0,0.03
2014-5-7,67,54,47,49,41,34,83,65,42,30.14,29.97,7,2,0,0.03
2014-5-8,74,64,52,61,55,47,93,74,57,30.03,29.91,9,2,0,0.03
2014-5-9,86,76,65,64,60,54,91,59,35,29.92,29.72,22,5,0,0.03
2014-5-10,70,61,58,61,48,33,81,63,33,29.92,29.75,21,7,0,0.01
2014-5-11,70,63,55,51,44,41,69,52,36,30.08,29.93,10,2,0,0.01
2014-5-12,76,70,65,66,60,52,92,73,54,30.03,29.90,9,3,0,0.00
2014-5-13,91,77,67,68,64,61,82,66,39,29.99,29.87,12,4,0,0.01
2014-5-14,72,66,60,65,63,59,96,88,75,30.05,29.89,9,2,0,0.01
2014-5-15,75,65,51,64,59,49,93,83,64,29.91,29.72,15,7,0,0.00
2014-5-16,51,47,44,48,41,37,94,81,69,30.01,29.87,16,7,0,0.01
2014-5-17,53,47,41,44,41,38,92,80,60,30.18,29.97,9,3,0,0.01
2014-5-18,59,51,42,45,38,32,86,64,36,30.27,30.18,13,4,0,0.00
2014-5-19,65,58,52,42,36,30,55,44,29,30.27,30.15,15,4,0,0.00
2014-5-20,68,61,53,51,43,38,64,52,41,30.16,29.87,14,3,0,0.00
2014-5-21,76,66,60,65,60,47,95,80,55,29.88,29.76,10,3,0,0.00
2014-5-22,67,60,55,64,55,51,95,85,77,29.97,29.73,19,4,0,0.00
2014-5-23,56,52,50,53,48,45,92,86,80,30.11,29.95,21,6,0,0.01
2014-5-24,67,58,49,52,50,47,94,76,56,30.16,30.08,13,5,0,0.00
2014-5-25,77,65,55,52,48,43,74,57,30,30.15,30.04,10,2,0,0.00
2014-5-26,78,72,64,56,52,46,59,49,41,30.05,29.88,18,5,0,0.00
2014-5-27,77,73,68,66,63,56,90,71,54,29.88,29.78,16,5,0,0.00
2014-5-28,68,64,57,66,59,53,98,86,73,30.04,29.81,13,4,0,0.00
2014-5-29,63,58,53,55,53,50,90,82,74,30.11,30.01,10,3,0,0.00
2014-5-30,73,63,54,59,55,52,98,77,49,30.17,30.08,8,1,0,0.00
2014-5-31,72,65,58,57,48,39,86,57,31,30.22,30.12,12,4,0,0.00
2014-6-1,86,73,61,57,49,42,56,44,28,30.18,29.99,12,4,0,0.00
2014-6-2,85,76,69,72,65,57,92,70,57,30.02,29.85,12,5,0,0.01
2014-6-3,81,74,65,69,64,56,91,72,46,29.84,29.74,24,7,0,0.00
2014-6-4,71,64,60,59,56,51,89,75,50,29.87,29.73,7,2,0,0.01
2014-6-5,65,60,54,56,51,48,90,74,59,29.91,29.73,13,4,0,0.04
2014-6-6,68,61,52,56,50,46,80,68,53,30.00,29.90,9,2,0,0.00
2014-6-7,77,68,56,55,50,46,80,55,37,30.06,29.88,10,2,0,0.00
2014-6-8,73,64,59,62,56,46,96,77,49,29.88,29.74,10,2,0,0.90
2014-6-9,70,64,60,62,59,56,95,84,75,29.93,29.86,9,2,0,0.00
2014-6-10,73,68,62,65,63,61,96,83,71,29.91,29.85,8,1,0,0.00
2014-6-11,84,75,69,70,66,63,87,74,55,29.85,29.71,14,3,0,0.06
2014-6-12,82,72,69,70,66,63,94,81,63,29.77,29.71,16,5,0,0.47
2014-6-13,72,67,59,66,60,50,95,79,67,29.91,29.69,18,5,0,0.49
2014-6-14,64,58,55,53,49,47,80,72,60,30.10,29.92,14,6,0,0.00
2014-6-15,70,64,53,60,55,49,86,73,61,30.17,30.01,10,2,0,0.00
2014-6-16,85,76,65,69,62,53,81,63,40,30.04,29.95,18,5,0,0.00
2014-6-17,91,80,71,73,69,66,93,72,47,30.00,29.75,15,4,0,0.85
2014-6-18,80,71,66,69,65,63,95,82,62,30.02,29.85,28,2,0,0.81
2014-6-19,72,68,65,66,61,44,95,79,46,30.08,29.94,13,3,0,0.02
2014-6-20,71,66,58,57,49,38,70,54,40,30.08,29.89,9,2,0,0.00
2014-6-21,73,66,61,57,49,-100,73,58,33,29.93,29.85,12,-19,0,0.00
2014-6-22,75,69,62,59,55,52,75,62,47,29.93,29.88,10,2,0,0.00
2014-6-23,88,75,67,72,64,53,92,70,50,29.93,29.85,13,3,0,0.23
2014-6-24,89,77,71,72,65,-100,93,73,54,29.88,29.78,14,-6,0,0.40
2014-6-25,73,70,69,70,68,66,96,92,88,29.88,29.81,10,2,0,0.08
2014-6-26,74,69,67,68,66,65,95,91,77,29.98,29.87,8,3,0,0.01
2014-7-2,77,75,74,68,68,67,82,78,73,29.86,29.81,11,2,0,0.00
2014-7-3,75,70,64,67,63,57,87,77,67,30.03,29.85,14,4,0,0.01
2014-7-4,70,66,60,57,53,47,80,64,49,30.20,30.04,20,6,0,0.00
2014-7-5,76,69,57,57,52,46,77,56,39,30.25,30.08,13,4,0,0.00
2014-7-6,81,73,64,62,56,53,74,57,40,30.07,29.77,12,4,0,0.00
2014-7-7,82,76,68,73,68,62,93,75,63,29.77,29.62,15,6,0,0.49
2014-7-8,80,74,67,72,68,63,94,82,67,29.70,29.49,20,6,0,1.54
2014-7-9,71,69,64,65,62,57,85,77,63,29.97,29.70,12,4,0,0.09
2014-7-10,73,68,60,59,56,53,84,67,51,30.12,29.97,12,2,0,0.01
2014-7-11,77,71,62,65,58,54,81,66,45,30.18,30.10,12,1,0,0.00
2014-7-12,83,77,68,66,60,53,66,58,49,30.13,29.92,7,2,0,0.00
2014-7-13,81,77,72,72,69,65,85,76,63,29.91,29.74,16,6,0,0.18
2014-7-14,81,75,70,72,67,64,84,76,67,29.82,29.70,11,3,0,0.00
2014-7-15,74,71,66,67,61,53,91,73,50,29.77,29.63,23,7,0,0.08
2014-7-16,67,65,62,58,56,54,80,72,65,29.93,29.77,18,6,0,0.00
2014-7-17,72,66,58,59,54,49,84,66,50,30.11,29.93,16,3,0,0.00
2014-7-18,77,69,60,62,54,47,70,59,39,30.20,30.11,8,2,0,0.00
2014-7-19,70,67,64,66,62,55,93,83,62,30.13,30.01,13,4,0,0.27
2014-7-20,77,71,66,67,65,63,88,81,68,30.05,29.99,10,2,0,0.01
2014-7-21,79,73,67,69,66,62,90,77,58,30.09,30.00,11,1,0,0.00
2014-7-22,84,77,68,72,68,64,86,74,62,30.07,29.89,11,2,0,0.00
2014-7-23,81,73,66,71,66,58,93,80,71,29.96,29.81,13,5,0,0.02
2014-7-24,70,67,62,59,55,50,80,65,49,30.02,29.94,11,3,0,0.00
2014-7-25,73,66,57,60,55,51,83,67,54,30.06,29.93,11,3,0,0.00
2014-7-26,79,72,65,67,61,56,79,68,53,29.94,29.74,10,3,0,0.02
2014-7-27,79,73,64,71,68,62,94,84,69,29.72,29.52,11,4,0,0.61
2014-7-28,68,64,60,64,60,52,95,85,65,29.87,29.52,20,6,0,0.32
2014-7-29,68,64,59,55,53,50,82,69,56,29.94,29.85,13,5,0,0.06
2014-7-30,71,66,59,62,59,53,93,80,67,29.96,29.90,12,3,0,0.05
2014-7-31,75,68,62,62,59,54,88,72,49,30.02,29.92,16,4,0,0.04
2014-8-1,81,74,66,67,61,55,74,66,54,30.08,30.01,8,2,0,0.03
2014-8-2,79,70,65,68,65,61,94,83,67,30.06,30.00,9,2,0,0.04
2014-8-3,75,70,65,68,65,62,92,85,77,30.06,30.01,7,2,0,0.03
2014-8-4,80,73,64,69,63,59,90,72,51,30.06,29.99,10,2,0,0.02
2014-8-5,78,70,66,66,63,60,92,78,66,30.01,29.95,12,2,0,0.04
2014-8-6,74,70,64,66,63,60,92,81,67,29.97,29.93,7,2,0,0.03
2014-8-7,74,69,62,63,61,58,88,75,62,30.05,29.97,10,2,0,0.02
2014-8-8,75,69,61,63,58,54,86,70,50,30.11,30.05,9,1,0,0.01
2014-8-9,76,70,63,64,60,57,79,70,57,30.09,30.03,15,3,0,0.01
2014-8-10,85,74,66,69,64,59,78,70,50,30.07,29.96,14,2,0,0.00
2014-8-11,83,73,68,67,64,62,85,73,57,29.98,29.69,22,7,0,0.06
2014-8-12,83,72,66,69,66,62,93,82,61,29.72,29.63,13,4,0,0.09
2014-8-13,70,66,63,65,58,51,90,77,55,29.89,29.70,20,7,0,0.02
2014-8-14,65,62,58,55,51,48,81,69,55,29.92,29.86,18,6,0,0.01
2014-8-15,69,63,55,55,51,48,79,65,57,29.97,29.92,15,5,0,0.00
2014-8-16,73,67,60,63,53,45,85,62,50,29.94,29.80,13,5,0,0.01
2014-8-17,75,68,64,66,59,52,92,74,47,29.96,29.82,11,2,0,0.00
2014-8-18,72,66,59,63,59,56,89,78,67,29.93,29.81,11,2,0,0.00
2014-8-19,79,70,60,67,62,56,91,76,52,29.83,29.75,14,1,0,0.23
2014-8-20,83,72,67,69,66,63,90,82,61,29.88,29.75,12,3,0,0.34
2014-8-21,78,74,70,71,68,66,90,84,72,29.95,29.88,12,2,0,0.02
2014-8-22,77,74,71,71,70,67,92,86,76,29.93,29.88,8,2,0,0.00
2014-8-23,73,71,68,69,67,64,96,89,79,30.01,29.91,10,4,0,0.00
2014-8-24,80,72,66,68,64,62,87,77,58,30.09,30.02,9,1,0,0.00
2014-8-25,85,74,65,67,62,60,83,67,48,30.11,30.02,10,4,0,0.00
2014-8-26,89,78,69,71,66,59,77,66,53,30.07,29.93,12,4,0,0.00
2014-8-27,78,72,66,70,65,58,94,78,63,30.03,29.95,11,4,0,0.00
2014-8-28,70,65,61,58,54,51,77,68,53,30.11,30.01,10,3,0,0.00
2014-8-29,79,68,58,62,55,50,80,65,38,30.15,30.02,12,2,0,0.00
2014-8-30,91,79,66,72,65,57,74,63,48,30.03,29.86,12,6,0,0.00
2014-8-31,82,75,71,71,70,67,96,83,63,29.93,29.88,12,4,0,0.92
2014-9-1,87,78,72,72,70,68,92,78,58,29.92,29.77,13,4,0,0.11
2014-9-2,79,73,68,72,69,64,94,87,73,29.89,29.78,12,4,0,0.70
2014-9-3,78,72,66,70,66,62,94,83,66,30.04,29.89,10,2,0,0.00
2014-9-4,86,77,69,67,64,62,86,66,47,30.05,29.98,11,3,0,0.00
2014-9-5,92,82,70,72,68,64,93,64,47,30.03,29.83,15,4,0,0.21
2014-9-6,71,68,65,68,61,52,94,79,61,30.06,29.81,14,4,0,0.23
2014-9-7,70,64,56,57,52,47,83,65,47,30.18,30.06,10,1,0,0.00
2014-9-8,82,68,56,58,54,48,78,61,38,30.19,30.06,11,2,0,0.00
2014-9-9,82,70,64,68,61,56,90,74,54,30.07,29.96,15,5,0,0.25
2014-9-10,83,74,66,70,66,62,90,77,60,29.97,29.60,15,7,0,0.30
2014-9-11,76,65,58,71,60,51,94,84,78,30.10,29.57,24,9,0,0.29
2014-9-12,58,57,55,53,50,47,88,78,71,30.22,30.10,10,3,0,0.00
2014-9-13,61,57,54,55,50,44,90,77,61,30.28,30.01,23,6,0,0.00
2014-9-14,62,57,52,48,46,43,78,66,55,30.31,30.19,8,2,0,0.00
2014-9-15,69,60,54,56,50,47,93,71,49,30.19,30.01,9,2,0,0.22
2014-9-16,64,59,54,55,50,45,94,75,54,30.09,30.00,10,2,0,0.24
2014-9-17,66,59,52,53,50,48,86,73,53,30.03,29.94,11,2,0,0.00
2014-9-18,64,58,51,57,52,47,85,79,69,30.15,29.95,8,2,0,0.00
2014-9-19,64,57,48,56,50,45,91,77,57,30.25,30.04,10,2,0,0.00
2014-9-20,80,71,63,64,61,55,81,70,55,30.04,29.76,18,7,0,0.00
2014-9-21,74,68,56,67,61,49,88,77,62,29.79,29.58,26,10,0,0.11
2014-9-22,57,54,50,49,45,42,81,71,63,30.22,29.80,25,8,0,0.00
2014-9-23,65,57,49,55,50,44,85,76,68,30.35,30.22,11,2,0,0.00
2014-9-24,77,64,54,62,54,50,85,70,41,30.43,30.34,9,2,0,0.00
2014-9-25,71,64,58,59,55,52,82,73,57,30.35,30.22,8,2,0,0.00
2014-9-26,70,63,56,60,55,51,83,75,66,30.28,30.22,11,1,0,0.00
2014-9-27,71,65,55,61,56,52,87,74,65,30.27,30.15,6,1,0,0.00
2014-9-28,75,67,60,62,58,55,87,75,58,30.16,30.00,6,1,0,0.00
2014-9-29,72,64,58,64,58,54,90,80,64,29.99,29.84,12,2,0,0.00
2014-9-30,65,62,59,61,58,54,93,86,80,29.93,29.81,7,2,0,0.59
2014-10-1,67,63,58,62,59,56,94,88,78,30.01,29.92,10,2,0,0.00
2014-10-2,78,67,58,62,57,53,94,73,42,30.05,29.86,12,3,0,0.00
2014-10-3,79,66,60,65,59,56,94,79,55,29.86,29.51,19,6,0,0.29
2014-10-4,59,50,43,58,40,28,94,71,43,29.70,29.52,18,7,0,0.16
2014-10-5,55,47,42,44,38,34,90,71,52,29.79,29.66,18,7,0,0.08
2014-10-6,66,57,49,54,47,37,88,70,56,29.77,29.66,21,6,0,0.06
2014-10-7,65,58,54,55,51,49,91,78,62,29.82,29.66,14,5,0,0.05
2014-10-8,59,56,53,53,46,38,93,72,48,29.94,29.68,27,10,0,0.05
2014-10-9,57,54,49,46,41,38,75,63,51,30.05,29.92,19,5,0,0.03
2014-10-10,56,50,43,45,42,39,87,73,63,30.11,30.04,9,1,0,0.02
2014-10-11,56,51,47,42,40,38,76,65,53,30.21,30.06,9,2,0,0.02
2014-10-12,62,52,41,48,41,36,83,68,42,30.24,30.04,15,2,0,0.02
2014-10-13,74,65,57,64,58,47,91,77,67,30.04,29.91,16,7,0,0.02
2014-10-14,83,73,61,66,62,59,93,70,53,29.91,29.61,24,9,0,0.03
2014-10-15,65,60,56,59,56,54,96,87,74,29.81,29.71,9,2,0,0.02
2014-10-16,62,58,54,58,55,52,95,91,80,29.71,29.64,14,2,0,0.03
2014-10-17,65,60,56,56,53,52,93,80,67,29.65,29.48,20,6,0,0.03
2014-10-18,59,50,45,54,45,33,94,81,65,29.99,29.52,22,10,0,0.02
2014-10-19,49,45,43,39,35,30,79,68,61,30.14,29.99,14,5,0,0.02
2014-10-20,58,52,44,50,43,37,92,73,64,30.00,29.78,10,4,0,0.03
2014-10-21,53,51,48,51,48,46,94,90,83,30.06,29.77,16,4,0,0.02
2014-10-22,50,48,47,46,44,43,92,85,80,30.22,30.06,13,4,0,0.02
2014-10-23,56,53,50,51,46,42,86,78,64,30.17,30.03,11,4,0,0.02
2014-10-24,57,52,45,49,46,42,92,79,66,30.05,29.94,10,2,0,0.02
2014-10-25,64,58,54,55,50,44,89,76,56,29.93,29.64,23,6,0,0.02
2014-10-26,57,53,48,45,41,38,73,65,56,29.91,29.69,19,8,0,0.02
2014-10-27,72,58,43,53,40,34,85,57,27,29.99,29.76,15,3,0,0.01
2014-10-28,76,68,55,60,57,49,92,70,55,29.85,29.68,20,7,0,0.02
2014-10-29,55,51,47,49,43,40,88,75,62,29.99,29.85,21,6,0,0.01
2014-10-30,49,47,43,42,40,38,84,77,72,30.08,29.98,10,3,0,0.02
2014-10-31,50,45,43,42,39,38,89,76,67,30.00,29.84,7,1,0,0.01
2014-11-1,44,40,38,41,36,28,92,84,69,30.20,29.91,20,7,0,0.01
2014-11-2,44,39,36,34,30,26,77,71,61,30.34,30.20,15,6,0,0.00
2014-11-3,58,50,39,34,27,20,74,45,27,30.26,30.07,13,5,0,0.02
2014-11-4,68,58,53,53,37,27,94,50,28,30.07,29.86,22,7,0,0.01
2014-11-5,53,50,46,50,41,37,87,73,64,30.10,29.95,23,7,0,0.01
2014-11-6,52,48,45,44,41,36,90,75,67,30.02,29.69,9,2,0,0.01
2014-11-7,46,41,39,44,31,27,91,68,57,30.00,29.76,20,8,0,0.00
2014-11-8,47,42,38,41,32,27,90,67,58,29.98,29.70,15,6,0,0.01
2014-11-9,50,46,40,38,34,32,86,66,51,29.93,29.83,22,6,0,0.01
2014-11-10,65,55,48,38,35,33,61,48,32,30.00,29.78,15,4,0,0.00
2014-11-11,70,61,50,53,43,37,93,53,39,29.80,29.65,18,7,0,0.01
2014-11-12,49,40,37,46,33,28,94,74,66,30.16,29.78,24,9,0,0.01
2014-11-13,37,33,31,32,28,21,95,80,58,30.14,30.07,13,3,0,0.00
2014-11-14,36,34,32,29,24,20,87,66,54,30.26,30.08,22,10,0,0.28
2014-11-15,38,32,30,30,26,19,93,77,58,30.36,30.24,11,2,0,0.21
2014-11-16,37,34,30,32,24,20,91,68,54,30.25,29.91,15,2,0,0.07
2014-11-17,36,32,21,34,29,13,95,88,69,29.91,29.54,21,4,0,0.43
2014-11-18,21,18,15,13,10,7,83,71,63,30.12,29.76,34,11,0,0.00
2014-11-19,34,23,14,28,15,6,86,73,60,30.16,29.78,21,8,0,0.00
2014-11-20,32,26,23,24,20,13,93,78,56,30.10,29.82,34,10,0,0.00